SCOUT A DEB, 2141

Orbit data source: Space-Track

SCOUT A DEB, 2141 is space debris in LEO originally from a launch on Fri, 28 Jan 1966 UTC launched from the Air Force Western Test Range (AFWTR). Debris objects in space refer to the collection of defunct objects orbiting the Earth. Examples of debris include non-operational satellites, rocket bodies, and fragments generated from explosions, collisions, or faulty payload assembly.

Loading next visibility...
SCOUT A DEB details
Identifier
2141, 1966-005D
Orbit
LEO
Last TLE update3 days ago
Origin
Flag of USUSN BuWeps (US)
ManufacturerUnknown
MissionSpacecraft
Bus & MotorUnknown
MassUnknown
Launch date (UTC)
1966-01-28 (59 years ago)
Launch vehicleUnknown
Launch site
Air Force Western Test Range (AFWTR)
Object type
Payload
Rocket body
Debris
Shape & HBRUnknown
Radar Cross SectionSmall (<0.1 m²)

Expand to show TLE details & history

TLE from 3 days ago
0 SCOUT A DEB
1 02141U 66005D   25038.05190553  .00001502  00000-0  87583-3 0  9993
2 02141  90.2155 245.8497 0113079 193.4033 166.4140 14.05012983999142
Epoch: 2025-02-07T01:14Z
Definitive object data (Epoch: 2025-02-07T01:14:44.637Z)
Latitude-0.00003°
Longitude89.74403°
Altitude959.327 km
Speed7.331 km/s
True Right ascension16h 23m 23s
True Declination0° 00' 00"
Sunlit
Object was in daylight at TLE epoch
Visualization TLE readout
Latitude-26.79796°
Longitude-90.30382°
Altitude809.94 km
Speed7.486 km/s
Apparent Right ascension04h 22m 43s
Apparent Declination-32° 47' 59"
Sunlit
Object is in daylight
Visualization observer readout
Local Sidereal Time16:22:05
Azimuth358.931° N
Elevation-82.882°
Doppler factor1
Orbital elements
Apogee altitude955.458 km
Perigee altitude791.457 km
Semi-major axis7,251.594 km
Eccentricity0.0113079
Inclination90.2155°
RAAN245.8497°
Arg. of periapsis193.4033°
True anomaly166.71426°
Mean anomaly166.414°
Eccentric anomaly166.56454°
Mean motion3.51474 °/min
BSTAR0.00087583
Orbital period102.43 mins
Loading maneuver chart data...
Loading historical data...
Loading historical data...
Loading historical data...
Loading historical data...
Loading historical data...
Loading historical data...
Loading historical data...

SCOUT A DEB Visibility forecast

Observer location: undefined°, undefined

Span
Click to sort rows by Start time (UTC) header in descending order
Start Az.
Max El. time (UTC)
Max El. Az.
Max El.
End time (UTC)
End Az.
9 mins2025-02-09 14:53:54.115Z218.287° SW2025-02-09 14:57:54.115Z266.337° W27.455°2025-02-09 15:02:54.115Z332.888° NNW
8 mins2025-02-10 01:38:54.115Z17.81° NNE2025-02-10 01:41:54.115Z72.217° E39.777°2025-02-10 01:46:54.115Z167.343° S
5 mins2025-02-10 03:21:54.115Z313.21° NW2025-02-10 03:23:54.115Z288.351° WNW15.731°2025-02-10 03:26:54.115Z252.473° W
9 mins2025-02-10 13:07:54.115Z135.17° SSE2025-02-10 13:11:54.115Z78.463° E30.355°2025-02-10 13:16:54.115Z16.592° NNE
|